This is the latest recevied weather packets stored in our database for station/object OZ1IEP-5. If no packets are shown the sender has not sent any weather packets the latest 10 day(s).
| Time | Temp. | Humidity | Pressure | Rain* | Wind** | Luminosity | Snow |
|---|---|---|---|---|---|---|---|
| 1777845609 | 12.22° C | 92% | 1005.8 hPa | 1.78 mm | - | 0 W/m² | - |
| 1777845006 | 12.22° C | 92% | 1006.1 hPa | 1.78 mm | - | 0 W/m² | - |
| 1777844406 | 12.22° C | 92% | 1006.3 hPa | 1.78 mm | - | 0 W/m² | - |
| 1777843809 | 12.22° C | 91% | 1006.2 hPa | 1.52 mm | - | 0 W/m² | - |
| 1777843207 | 12.22° C | 91% | 1006.3 hPa | 1.52 mm | - | 0 W/m² | - |
| 1777842606 | 12.22° C | 91% | 1006.4 hPa | 1.52 mm | - | 0 W/m² | - |
| 1777842008 | 12.22° C | 91% | 1006.2 hPa | 1.52 mm | - | 0 W/m² | - |
| 1777841406 | 12.22° C | 91% | 1005.6 hPa | 2.03 mm | - | 0 W/m² | - |
| 1777840806 | 12.22° C | 90% | 1005.7 hPa | 3.05 mm | - | 0 W/m² | - |
| 1777840209 | 12.78° C | 90% | 1006.1 hPa | 3.05 mm | - | 0 W/m² | - |
| 1777839606 | 12.78° C | 89% | 1006.2 hPa | 2.79 mm | - | 0 W/m² | - |
| 1777839006 | 12.78° C | 88% | 1006.4 hPa | 2.29 mm | - | 0 W/m² | - |
| 1777838408 | 13.33° C | 88% | 1007.2 hPa | 2.03 mm | - | 0 W/m² | - |
| 1777837806 | 13.33° C | 87% | 1007 hPa | 1.02 mm | - | 0 W/m² | - |
| 1777837206 | 13.33° C | 86% | 1007.2 hPa | 0 mm | - | 0 W/m² | - |
| 1777836608 | 13.33° C | 86% | 1006.7 hPa | 0 mm | - | 0 W/m² | - |
| 1777836006 | 13.33° C | 86% | 1006.8 hPa | 0 mm | - | 0 W/m² | - |
| 1777835405 | 13.33° C | 85% | 1006.7 hPa | 0 mm | - | 0 W/m² | - |
| 1777834819 | 13.33° C | 85% | 1006.6 hPa | 0 mm | - | 0 W/m² | - |
| 1777834205 | 13.33° C | 84% | 1006.5 hPa | 0 mm | - | 0 W/m² | - |
| 1777833606 | 13.33° C | 84% | 1006.5 hPa | 0 mm | - | 0 W/m² | - |
| 1777833008 | 13.33° C | 83% | 1006.4 hPa | 0 mm | - | 7 W/m² | - |
| 1777832405 | 13.33° C | 82% | 1006.6 hPa | 0 mm | - | 14 W/m² | - |
| 1777831806 | 13.33° C | 82% | 1006.7 hPa | 0 mm | - | 14 W/m² | - |
| 1777831208 | 13.33° C | 83% | 1006.9 hPa | 0 mm | - | 14 W/m² | - |
* Rain latest hour (hover to see other rain measurements)
** Current wind speed in m/s (hover to see current wind gust speed)